Time,TemperatureF,DewpointF,PressureIn,WindDirection,WindDirectionDegrees,WindSpeedMPH,WindSpeedGustMPH,Humidity,HourlyPrecipIn,Conditions,Clouds,dailyrainin,SoftwareType,DateUTC
2013-07-08 00:12:00,71.0,68.0,-100.00,South,170,0.0,0.0,90,-99.99,,,-99.99,,2013-07-08 05:12:00,
2013-07-08 00:22:00,71.0,68.0,-100.00,South,170,0.0,0.0,90,-99.99,,,-99.99,,2013-07-08 05:22:00,
2013-07-08 00:43:00,71.0,67.0,-100.00,SSE,165,0.0,0.0,90,-99.99,,,-99.99,,2013-07-08 05:43:00,
2013-07-08 00:53:00,71.0,67.0,-100.00,SSE,165,0.0,0.0,90,-99.99,,,-99.99,,2013-07-08 05:53:00,
2013-07-08 01:12:00,70.0,67.0,-100.00,SSE,165,0.0,0.0,90,-99.99,,,-99.99,,2013-07-08 06:12:00,
2013-07-08 01:22:00,70.0,67.0,-100.00,SSE,165,0.0,0.0,90,-99.99,,,-99.99,,2013-07-08 06:22:00,
2013-07-08 01:33:00,70.0,67.0,-100.00,SSE,165,0.0,0.0,90,-99.99,,,-99.99,,2013-07-08 06:33:00,
2013-07-08 01:43:00,70.0,67.0,-100.00,South,180,0.0,0.0,90,-99.99,,,-99.99,,2013-07-08 06:43:00,
2013-07-08 01:53:00,70.0,67.0,-100.00,South,180,0.0,0.0,90,-99.99,,,-99.99,,2013-07-08 06:53:00,
2013-07-08 02:12:00,70.0,67.0,-100.00,SSE,160,0.0,0.0,90,-99.99,,,-99.99,,2013-07-08 07:12:00,
2013-07-08 02:22:00,70.0,67.0,-100.00,SSE,160,0.0,0.0,90,-99.99,,,-99.99,,2013-07-08 07:22:00,
2013-07-08 02:44:00,70.0,67.0,-100.00,South,175,0.0,0.0,90,-99.99,,,-99.99,,2013-07-08 07:44:00,
2013-07-08 02:53:00,70.0,67.0,-100.00,South,175,0.0,0.0,90,-99.99,,,-99.99,,2013-07-08 07:53:00,
2013-07-08 03:22:00,70.0,67.0,-100.00,South,170,0.0,0.0,90,-99.99,,,-99.99,,2013-07-08 08:22:00,
2013-07-08 03:42:00,69.0,66.0,-100.00,SSE,165,0.0,0.0,90,-99.99,,,-99.99,,2013-07-08 08:42:00,
2013-07-08 03:53:00,69.0,66.0,-100.00,SSE,165,0.0,0.0,90,-99.99,,,-99.99,,2013-07-08 08:53:00,
2013-07-08 04:11:00,69.0,66.0,-100.00,South,185,0.0,0.0,90,-99.99,,,-99.99,,2013-07-08 09:11:00,
2013-07-08 04:22:00,69.0,66.0,-100.00,South,185,0.0,0.0,90,-99.99,,,-99.99,,2013-07-08 09:22:00,
2013-07-08 04:43:00,69.0,66.0,-100.00,South,185,0.0,0.0,90,-99.99,,,-99.99,,2013-07-08 09:43:00,
2013-07-08 04:53:00,69.0,66.0,-100.00,South,185,0.0,0.0,90,-99.99,,,-99.99,,2013-07-08 09:53:00,
2013-07-08 05:11:00,69.0,67.0,-100.00,South,175,0.0,0.0,91,-99.99,,,-99.99,,2013-07-08 10:11:00,
2013-07-08 05:22:00,69.0,67.0,-100.00,South,175,0.0,0.0,91,-99.99,,,-99.99,,2013-07-08 10:22:00,
2013-07-08 05:43:00,69.0,67.0,-100.00,South,175,0.0,0.0,91,-99.99,,,-99.99,,2013-07-08 10:43:00,
2013-07-08 05:53:00,69.0,67.0,-100.00,South,175,0.0,0.0,91,-99.99,,,-99.99,,2013-07-08 10:53:00,
2013-07-08 06:11:00,70.0,67.0,-100.00,South,180,0.0,2.0,91,-99.99,,,-99.99,,2013-07-08 11:11:00,
2013-07-08 06:23:00,70.0,67.0,-100.00,South,180,0.0,2.0,91,-99.99,,,-99.99,,2013-07-08 11:23:00,
2013-07-08 06:33:00,70.0,67.0,-100.00,SSE,165,0.0,0.0,91,-99.99,,,-99.99,,2013-07-08 11:33:00,
2013-07-08 06:43:00,70.0,67.0,-100.00,SSE,165,0.0,0.0,91,-99.99,,,-99.99,,2013-07-08 11:43:00,
2013-07-08 06:53:00,70.0,67.0,-100.00,SSE,165,0.0,0.0,91,-99.99,,,-99.99,,2013-07-08 11:53:00,
2013-07-08 07:11:00,71.0,69.0,-100.00,South,180,0.0,0.0,91,-99.99,,,-99.99,,2013-07-08 12:11:00,
2013-07-08 07:22:00,71.0,69.0,-100.00,South,180,0.0,0.0,91,-99.99,,,-99.99,,2013-07-08 12:22:00,
2013-07-08 07:53:00,73.0,70.0,-100.00,SE,145,0.0,0.0,91,-99.99,,,-99.99,,2013-07-08 12:53:00,
2013-07-08 08:22:00,75.0,71.0,-100.00,SE,135,0.0,0.0,89,-99.99,,,-99.99,,2013-07-08 13:22:00,
2013-07-08 08:53:00,78.0,71.0,-100.00,South,190,0.0,0.0,80,-99.99,,,-99.99,,2013-07-08 13:53:00,
2013-07-08 09:12:00,80.0,70.0,-100.00,SSW,200,0.0,0.0,71,-99.99,,,-99.99,,2013-07-08 14:12:00,
2013-07-08 09:22:00,80.0,70.0,-100.00,SSW,200,0.0,0.0,71,-99.99,,,-99.99,,2013-07-08 14:22:00,
2013-07-08 09:43:00,83.0,70.0,-100.00,SSW,205,0.0,2.0,66,-99.99,,,-99.99,,2013-07-08 14:43:00,
2013-07-08 09:53:00,83.0,70.0,-100.00,SSW,205,0.0,2.0,66,-99.99,,,-99.99,,2013-07-08 14:53:00,
2013-07-08 10:22:00,84.0,70.0,-100.00,SSW,205,0.0,0.0,62,-99.99,,,-99.99,,2013-07-08 15:22:00,
2013-07-08 10:53:00,86.0,69.0,-100.00,SSE,160,0.0,3.0,56,-99.99,,,-99.99,,2013-07-08 15:53:00,
2013-07-08 11:22:00,87.0,68.0,-100.00,SW,215,0.0,0.0,54,-99.99,,,-99.99,,2013-07-08 16:22:00,
2013-07-08 11:57:00,88.0,68.0,-100.00,SW,215,0.0,0.0,52,-99.99,,,-99.99,,2013-07-08 16:57:00,
2013-07-08 12:28:00,88.0,68.0,-100.00,South,180,0.0,1.0,51,-99.99,,,-99.99,,2013-07-08 17:28:00,
2013-07-08 12:55:00,88.0,68.0,-100.00,SE,130,0.0,0.0,51,-99.99,,,-99.99,,2013-07-08 17:55:00,
2013-07-08 13:22:00,91.0,67.0,-100.00,SW,225,0.0,0.0,46,-99.99,,,-99.99,,2013-07-08 18:22:00,
2013-07-08 13:33:00,91.0,67.0,-100.00,SW,225,0.0,0.0,46,-99.99,,,-99.99,,2013-07-08 18:33:00,
2013-07-08 14:00:00,91.0,67.0,-100.00,SSE,155,0.0,0.0,45,-99.99,,,-99.99,,2013-07-08 19:00:00,
2013-07-08 14:32:00,90.0,67.0,-100.00,SSE,160,0.0,4.0,47,-99.99,,,-99.99,,2013-07-08 19:32:00,
2013-07-08 17:09:00,91.0,67.0,-100.00,SSE,155,0.0,0.0,45,-99.99,,,-99.99,,2013-07-08 22:09:00,
2013-07-08 17:15:00,90.0,67.0,-100.00,SSW,205,0.0,0.0,46,-99.99,,,-99.99,,2013-07-08 22:15:00,
2013-07-08 17:22:00,89.0,66.0,-100.00,South,185,0.0,0.0,47,-99.99,,,-99.99,,2013-07-08 22:22:00,
2013-07-08 17:53:00,90.0,67.0,-100.00,SSW,205,0.0,0.0,48,-99.99,,,-99.99,,2013-07-08 22:53:00,
2013-07-08 18:08:00,90.0,67.0,-100.00,SSW,205,0.0,0.0,48,-99.99,,,-99.99,,2013-07-08 23:08:00,
2013-07-08 18:20:00,89.0,68.0,-100.00,South,170,0.0,0.0,51,-99.99,,,-99.99,,2013-07-08 23:20:00,
2013-07-08 18:52:00,88.0,70.0,-100.00,SSE,160,0.0,0.0,56,-99.99,,,-99.99,,2013-07-08 23:52:00,
2013-07-08 19:09:00,88.0,70.0,-100.00,SSE,160,0.0,0.0,56,-99.99,,,-99.99,,2013-07-09 00:09:00,
2013-07-08 19:22:00,89.0,70.0,-100.00,South,170,0.0,0.0,54,-99.99,,,-99.99,,2013-07-09 00:22:00,
2013-07-08 19:42:00,89.0,70.0,-100.00,South,170,0.0,0.0,54,-99.99,,,-99.99,,2013-07-09 00:42:00,
2013-07-08 20:16:00,80.0,73.0,-100.00,ESE,110,0.0,0.0,80,-99.99,,,-99.99,,2013-07-09 01:16:00,
2013-07-08 20:33:00,83.0,72.0,-100.00,SW,230,0.0,0.0,70,-99.99,,,-99.99,,2013-07-09 01:33:00,
2013-07-08 20:53:00,80.0,73.0,-100.00,ESE,110,0.0,0.0,80,-99.99,,,-99.99,,2013-07-09 01:53:00,
2013-07-08 21:25:00,-999.0,-99.9,-100.00,WSW,240,0.0,0.0,83,-99.99,,,-99.99,,2013-07-09 02:25:00,
2013-07-08 21:44:00,77.0,73.0,-100.00,South,185,0.0,0.0,87,-99.99,,,-99.99,,2013-07-09 02:44:00,
2013-07-08 22:09:00,77.0,73.0,-100.00,South,185,0.0,0.0,88,-99.99,,,-99.99,,2013-07-09 03:09:00,
2013-07-08 22:32:00,76.0,72.0,-100.00,SW,220,0.0,0.0,89,-99.99,,,-99.99,,2013-07-09 03:32:00,
2013-07-08 23:02:00,75.0,72.0,-100.00,SSW,210,0.0,0.0,90,-99.99,,,-99.99,,2013-07-09 04:02:00,
2013-07-08 23:11:00,74.0,71.0,-100.00,South,180,0.0,0.0,90,-99.99,,,-99.99,,2013-07-09 04:11:00,
2013-07-08 23:22:00,74.0,71.0,-100.00,South,180,0.0,0.0,90,-99.99,,,-99.99,,2013-07-09 04:22:00,
2013-07-08 23:34:00,74.0,71.0,-100.00,South,175,0.0,0.0,90,-99.99,,,-99.99,,2013-07-09 04:34:00,
2013-07-08 23:42:00,73.0,70.0,-100.00,SSE,160,0.0,0.0,90,-99.99,,,-99.99,,2013-07-09 04:42:00,
2013-07-08 23:53:00,73.0,70.0,-100.00,SSE,160,0.0,0.0,90,-99.99,,,-99.99,,2013-07-09 04:53:00,